User: anonymous   Login
Location: Unspecified
(0.0000°N, 0.0000°E)
Time: 18:55:02
(UTC+00:00)
Language:

USA 229 DEB - Orbit

View from above orbital plane
View from above orbital plane
View from above satellite
View from above satellite

Ground track
Ground track

The orbit data is extracted from the following two-line orbital elements,

1 37391U 11014B   21113.80347982 0.00000000  00000-0  00000-0 0    02
2 37391  63.4420  35.8295 0194988 358.0716   1.9284 13.40821720    07
Epoch (UTC): 23 April 2021 19:17:00
Eccentricity: 0.0194988
inclination: 63.4420°
perigee height: 960 km
apogee height: 1252 km
right ascension of ascending node: 35.8295°
argument of perigee: 358.0716°
revolutions per day: 13.40821720
mean anomaly at epoch: 1.9284°
orbit number at epoch: 0

The dashed part of the orbit path shows where the satellite is in the earth's shadow,  

DLR